STARLINK-34728

Last updated on Tue Sep 16 2025 00:02:08 GMT+0000 (Coordinated Universal Time)

1 65455U 25194X 25257.88975490 .00107906 00000+0 63315-3 0 9990 2 65455 97.5983 109.2177 0003334 19.8638 340.2757 15.77966753 3077
UTC large
Height (km)
Speed (km/s)
/
Latitude / Longitude
Inclination (degrees)
Orbital Period (minutes)
Azimuth
Elevation
Range (km)
Doppler Factor

Next 0 passes for location: London (51.5072 / 0.1276)

Sorry there are no passes over London.